sat.trackr.live / text

‹ back to catalog

CENTISPACE-1 S9

NORAD 62578 · 2025-007D

PAYLOAD ACTIVE UNKNOWN

§ Identity

Operator
Country
PRC
Launch date
2025-01-13
Launch site
YSLA
Launch vehicle
Mass (kg)
RCS (m²)

External: N2YO · Heavens-Above · Gunter

§ Orbital elements

Epoch: 2026-05-25T03:41:34.425024Z

Period
104.30 min
Inclination
54.9836°
Eccentricity
0.0012615
Mean motion
13.80602481 rev/d
Perigee alt
952.5 km
Apogee alt
971.0 km
Semi-major
7,339.9 km
B*
9.3658e-5
RAAN
12.8423°
Arg perigee
38.6724°
Mean anomaly
321.5133°
Rev number
7,153

§ Raw data

CENTISPACE-1 S91 62578U 25007D   26145.15387066 -.00000042  00000+0  93658-4 0  99972 62578  54.9836  12.8423 0012615  38.6724 321.5133 13.80602481 71537

JSON: /api/v1/satellites/62578 · /tle

For live sub-satellite position, see the globe view (requires WebGL).

§ Visibility from observer

Set your observer location to see the next 7 days of passes ≥ 10°. The values pass through the URL so the page stays shareable.

No JS? Fill the form by hand. The geolocation button needs JavaScript.

§ Radio — SatNOGS DB

ModeDescriptionDownlinkUplink
BPSK S-band telemetry 2.225 GHz
BPSK S-band telemetry 2.245 GHz

2 transmitters · refreshed weekly from db.satnogs.org